(52541) = 1996 VB = 2001 TH10

Discovered at Prescott on 1996-11-01 by P. G. Comba.

Orbit

Orbit type: Main Belt

Note: WebGL enabled browser required.

epoch2024-03-31.0
epoch JD2460400.5
perihelion date2020-07-04.91318
perihelion JD2459035.41318
argument of perihelion (°)32.26770
ascending node (°)285.25962
inclination (°)0.99489
eccentricity0.0555332
perihelion distance (AU)2.7218844
Tisserand w.r.t. Jupiter3.3
ΔV w.r.t. Earth (km/sec)10.3
semimajor axis (AU)2.8819270
mean anomaly (°)275.00441
mean daily motion (°/day)0.20145560
aphelion distance (AU)3.042
period (years)4.89
P-vector [x]0.73752183
P-vector [y]-0.62322594
P-vector [z]-0.26009801
Q-vector [x]0.67511551
Q-vector [y]0.67086348
Q-vector [z]0.30685704
absolute magnitude15.19
phase slope0.15
uncertainty0
referenceMPEC 2024-F50
observations used1317
oppositions22
arc length (days)10944
first opposition used1994
last opposition used2024
residual rms (arc-secs)0.72
perturbers coarse indicatorM-v
perturbers precise indicator003Ek
first observation date used1994-04-02.0
last observation date used2024-03-19.0
computer nameMPCLINUX
JD of orbit computation2456847.691304
perihelion JD uncertainty (days)2.0099E-04
argument of perihelion uncertainty (°)2.4357E-04
ascending node uncertainty (°)2.4044E-04
inclination uncertainty (°)3.1898E-06
eccentricity uncertainty 2.9469E-08
perihelion distance uncertainty (AU)9.0779E-08
Minimum Orbit Intersection Distances (in AU)
for orbit epoch: 2460400.5, reference: E2024-GD4
Mercury2.28953
Venus1.99551
Earth1.7082
Mars1.30932
Jupiter2.11439
Saturn6.04332
Uranus15.4143
Neptune26.9569

Observations

1339 total observations over interval: 1994 04 02.21680 – 2024 03 19.636866
These data are available for download (format description).

Date (UT) J2000 RA J2000 Dec Magn Location Ref
1994 04 02.21680 11 39 26.27 +00 41 03.2   691 – Steward Observatory, Kitt Peak-Spacewatch MPS 42806
1994 04 02.29023 11 39 23.03 +00 41 24.1   691 – Steward Observatory, Kitt Peak-Spacewatch MPS 42806
1994 04 02.36075 11 39 19.93 +00 41 43.4 19.4 V 691 – Steward Observatory, Kitt Peak-Spacewatch MPS 42806
1996 11 01.20103 00 40 01.09 +05 54 42.0   684 – Prescott MPC 28178
1996 11 01.20675 00 40 00.88 +05 54 40.9   684 – Prescott MPC 28178
1996 11 01.21265 00 40 00.69 +05 54 39.0 19.4 R 684 – Prescott MPC 28178
1996 11 02.21611 00 39 28.66 +05 50 54.3   684 – Prescott MPC 28178
1996 11 02.22399 00 39 28.37 +05 50 51.7   684 – Prescott MPC 28178
1996 11 02.23139 00 39 28.13 +05 50 50.0 19.0 R 684 – Prescott MPC 28178
1996 11 04.24138 00 38 27.57 +05 43 37.5 19.0 R 684 – Prescott MPC 28178
1996 11 04.24942 00 38 27.35 +05 43 36.0   684 – Prescott MPC 28178
1999 03 24.27443 12 27 44.61 -04 36 04.4 18.2 R 699 – Lowell Observatory-LONEOS MPS 58655
1999 03 24.29990 12 27 43.42 -04 35 56.3   699 – Lowell Observatory-LONEOS MPS 58655
1999 03 24.32539 12 27 42.00 -04 35 47.7   699 – Lowell Observatory-LONEOS MPS 58655
2001 09 10.45047 02 00 44.08 +13 47 05.2 19.6   644 – Palomar Mountain/NEAT MPS 42806
2001 09 10.47176 02 00 43.72 +13 47 03.9 19.5   644 – Palomar Mountain/NEAT MPS 42806
2001 09 10.49670 02 00 43.29 +13 47 02.3 19.8   644 – Palomar Mountain/NEAT MPS 42806
2001 09 23.40960 01 55 23.27 +13 22 53.3 18.8   704 – Lincoln Laboratory ETS, New Mexico MPS 42806
2001 09 23.42388 01 55 22.78 +13 22 51.5 18.9   704 – Lincoln Laboratory ETS, New Mexico MPS 42806
2001 09 23.46704 01 55 21.25 +13 22 44.8 19.3   704 – Lincoln Laboratory ETS, New Mexico MPS 42806
2001 09 24.35616 01 54 51.33 +13 20 16.1 19.5   704 – Lincoln Laboratory ETS, New Mexico MPS 42806
2001 09 24.37078 01 54 50.82 +13 20 13.3 19.5   704 – Lincoln Laboratory ETS, New Mexico MPS 42806
2001 09 24.38540 01 54 50.31 +13 20 11.5 19.4   704 – Lincoln Laboratory ETS, New Mexico MPS 42806
2001 09 24.40003 01 54 49.79 +13 20 09.0 19.8   704 – Lincoln Laboratory ETS, New Mexico MPS 42806
2001 10 11.43079 01 42 47.34 +12 16 31.9 18.8   644 – Palomar Mountain/NEAT MPS 42806
2001 10 11.45171 01 42 46.30 +12 16 25.9 18.9   644 – Palomar Mountain/NEAT MPS 42806
2001 10 11.47281 01 42 45.26 +12 16 20.2 18.9   644 – Palomar Mountain/NEAT MPS 42806
2001 10 12.26130 01 42 07.31 +12 12 47.7 18.9 R 699 – Lowell Observatory-LONEOS MPS 38325
2001 10 12.28466 01 42 06.15 +12 12 41.2   699 – Lowell Observatory-LONEOS MPS 38325
2001 10 12.30807 01 42 05.00 +12 12 35.4   699 – Lowell Observatory-LONEOS MPS 38325
2001 10 12.33158 01 42 03.80 +12 12 28.2   699 – Lowell Observatory-LONEOS MPS 38325
2001 10 13.25016 01 41 19.05 +12 08 16.1 19.0   704 – Lincoln Laboratory ETS, New Mexico MPS 38325
2001 10 13.26580 01 41 18.28 +12 08 11.7 19.2   704 – Lincoln Laboratory ETS, New Mexico MPS 38325
2001 10 13.28155 01 41 17.48 +12 08 08.1 19.2   704 – Lincoln Laboratory ETS, New Mexico MPS 38325
2001 10 13.29723 01 41 16.68 +12 08 03.4 19.4   704 – Lincoln Laboratory ETS, New Mexico MPS 38325
2001 10 13.31311 01 41 15.88 +12 07 58.8 19.4   704 – Lincoln Laboratory ETS, New Mexico MPS 38325
2001 10 14.24353 01 40 30.27 +12 03 41.7 19.1   704 – Lincoln Laboratory ETS, New Mexico MPS 38325
2001 10 14.25923 01 40 29.51 +12 03 36.9 19.6   704 – Lincoln Laboratory ETS, New Mexico MPS 38325
2001 10 14.27490 01 40 28.73 +12 03 32.8 19.2   704 – Lincoln Laboratory ETS, New Mexico MPS 38325
2001 10 14.29109 01 40 27.90 +12 03 28.1 19.4   704 – Lincoln Laboratory ETS, New Mexico MPS 38325
2001 10 14.30675 01 40 27.07 +12 03 23.4 19.3   704 – Lincoln Laboratory ETS, New Mexico MPS 38325
2001 10 17.24861 01 38 01.46 +11 49 31.4 18.8   704 – Lincoln Laboratory ETS, New Mexico MPS 39431
2001 10 17.26462 01 38 00.64 +11 49 26.9 19.1   704 – Lincoln Laboratory ETS, New Mexico MPS 39431
2001 10 17.28060 01 37 59.82 +11 49 22.5 19.5   704 – Lincoln Laboratory ETS, New Mexico MPS 39431
2001 10 17.29658 01 37 59.01 +11 49 18.1 18.8   704 – Lincoln Laboratory ETS, New Mexico MPS 39431
2001 10 17.31292 01 37 58.15 +11 49 13.3 19.1   704 – Lincoln Laboratory ETS, New Mexico MPS 39431
2001 10 19.32608 01 36 18.15 +11 39 34.0 18.5   644 – Palomar Mountain/NEAT MPS 40715
2001 10 19.34721 01 36 17.08 +11 39 27.9 18.6   644 – Palomar Mountain/NEAT MPS 40715
2001 10 19.36844 01 36 15.98 +11 39 21.7 18.5   644 – Palomar Mountain/NEAT MPS 40715
2001 10 21.25446 01 34 42.62 +11 30 13.9 18.5   704 – Lincoln Laboratory ETS, New Mexico MPS 40715
2001 10 21.27784 01 34 41.42 +11 30 06.8 19.0   704 – Lincoln Laboratory ETS, New Mexico MPS 40715
2001 10 21.29548 01 34 40.53 +11 30 01.7 18.9   704 – Lincoln Laboratory ETS, New Mexico MPS 40715
2001 10 21.31190 01 34 39.65 +11 29 56.5 18.9   704 – Lincoln Laboratory ETS, New Mexico MPS 40715
2001 10 25.23848 01 31 27.83 +11 10 53.3 19.5   704 – Lincoln Laboratory ETS, New Mexico MPS 42806
2001 10 25.25516 01 31 27.03 +11 10 49.1 20.0   704 – Lincoln Laboratory ETS, New Mexico MPS 42806
2001 10 25.27200 01 31 26.25 +11 10 44.2 19.8   704 – Lincoln Laboratory ETS, New Mexico MPS 42806
2001 10 25.28870 01 31 25.38 +11 10 38.5 19.5   704 – Lincoln Laboratory ETS, New Mexico MPS 42806
2001 10 25.30531 01 31 24.58 +11 10 34.4 20.0   704 – Lincoln Laboratory ETS, New Mexico MPS 42806
2001 11 09.22280 01 20 39.94 +10 03 09.0 19.2   704 – Lincoln Laboratory ETS, New Mexico MPS 40715
2001 11 09.23706 01 20 39.38 +10 03 06.1 19.8   704 – Lincoln Laboratory ETS, New Mexico MPS 40715
2001 11 09.25135 01 20 38.89 +10 03 03.7 19.8   704 – Lincoln Laboratory ETS, New Mexico MPS 40715
2001 11 09.26562 01 20 38.38 +10 02 58.7 19.7   704 – Lincoln Laboratory ETS, New Mexico MPS 40715
2001 11 09.27989 01 20 37.77 +10 02 55.5 19.8   704 – Lincoln Laboratory ETS, New Mexico MPS 40715
2001 11 16.20311 01 16 52.95 +09 37 37.6 19.8 V 291 – LPL/Spacewatch II MPS 41987
2001 11 16.22398 01 16 52.32 +09 37 33.6 19.8 V 291 – LPL/Spacewatch II MPS 41987
2001 11 16.24466 01 16 51.69 +09 37 29.5 19.7 V 291 – LPL/Spacewatch II MPS 41987
2001 11 21.08274 01 14 51.43 +09 23 09.0 19.1   704 – Lincoln Laboratory ETS, New Mexico MPS 42806
2001 11 21.09807 01 14 51.07 +09 23 05.7 19.7   704 – Lincoln Laboratory ETS, New Mexico MPS 42806
2001 11 21.11307 01 14 50.72 +09 23 02.7 19.5   704 – Lincoln Laboratory ETS, New Mexico MPS 42806
2001 11 21.12771 01 14 50.41 +09 23 01.9 19.9   704 – Lincoln Laboratory ETS, New Mexico MPS 42806
2001 11 21.14238 01 14 50.07 +09 22 59.0 19.6   704 – Lincoln Laboratory ETS, New Mexico MPS 42806
2002 12 31.29995 07 59 12.50 +20 28 26.6 19.5   704 – Lincoln Laboratory ETS, New Mexico MPS 69451
2002 12 31.31490 07 59 11.71 +20 28 29.0 20.0   704 – Lincoln Laboratory ETS, New Mexico MPS 69451
2002 12 31.34436 07 59 10.15 +20 28 31.2 20.0   704 – Lincoln Laboratory ETS, New Mexico MPS 69451
2002 12 31.35906 07 59 09.52 +20 28 33.5 20.0   704 – Lincoln Laboratory ETS, New Mexico MPS 69451
2002 12 31.44409 07 59 05.14 +20 28 44.0 19.9 V 291 – LPL/Spacewatch II MPS 69451
2002 12 31.47149 07 59 03.77 +20 28 47.1 20.2 V 291 – LPL/Spacewatch II MPS 69451
2002 12 31.50492 07 59 02.11 +20 28 50.9 20.1 V 291 – LPL/Spacewatch II MPS 69451
2003 01 30.44634 07 32 15.35 +21 27 53.7 20.9   608 – Haleakala-AMOS MPS 71039
2003 01 30.45752 07 32 14.80 +21 27 54.8 20.7   608 – Haleakala-AMOS MPS 71039
2003 01 30.46869 07 32 14.20 +21 27 55.7 20.6   608 – Haleakala-AMOS MPS 71039
2003 01 31.26167 07 31 35.69 +21 29 09.4 19.5   704 – Lincoln Laboratory ETS, New Mexico MPS 71039
2003 01 31.30406 07 31 33.60 +21 29 13.6 19.9   704 – Lincoln Laboratory ETS, New Mexico MPS 71039
2003 01 31.31818 07 31 32.88 +21 29 14.6 19.8   704 – Lincoln Laboratory ETS, New Mexico MPS 71039
2004 03 16.39598 13 14 29.32 -09 26 31.0 19.4 V 703 – Catalina Sky Survey MPS 101812
2004 03 16.40978 13 14 28.74 -09 26 28.2 20.4 V 703 – Catalina Sky Survey MPS 101812
2004 03 16.42362 13 14 28.30 -09 26 25.2 19.6 V 703 – Catalina Sky Survey MPS 101812
2004 03 16.43750 13 14 27.68 -09 26 23.0 19.6 V 703 – Catalina Sky Survey MPS 101812
2004 03 17.35309 13 13 53.34 -09 23 10.1 20.1 C 704 – Lincoln Laboratory ETS, New Mexico MPS 293801
